Year,Month,Day,Hour,Minute,Value (Times are PST for temperature in C)
2015,07,18,00,00,16.10
2015,07,18,00,01,16.10
2015,07,18,00,02,16.10
2015,07,18,00,03,16.10
2015,07,18,00,04,16.10
2015,07,18,00,05,16.10
2015,07,18,00,06,16.10
2015,07,18,00,07,16.10
2015,07,18,00,08,16.10
2015,07,18,00,09,16.10
2015,07,18,00,10,16.10
2015,07,18,00,11,16.10
2015,07,18,00,12,16.20
2015,07,18,00,13,16.20
2015,07,18,00,14,16.20
2015,07,18,00,15,16.20
2015,07,18,00,16,16.20
2015,07,18,00,17,16.20
2015,07,18,00,18,16.20
2015,07,18,00,19,16.20
2015,07,18,00,20,16.20
2015,07,18,00,21,16.20
2015,07,18,00,22,16.20
2015,07,18,00,23,16.10
2015,07,18,00,24,16.10
2015,07,18,00,25,16.10
2015,07,18,00,26,16.10
2015,07,18,00,27,16.10
2015,07,18,00,28,16.10
2015,07,18,00,29,16.10
2015,07,18,00,30,16.10
2015,07,18,00,31,16.10
2015,07,18,00,32,16.10
2015,07,18,00,33,16.10
2015,07,18,00,34,16.10
2015,07,18,00,35,16.10
2015,07,18,00,36,16.10
2015,07,18,00,37,16.10
2015,07,18,00,38,16.10
2015,07,18,00,39,16.10
2015,07,18,00,40,16.10
2015,07,18,00,41,16.10
2015,07,18,00,42,16.10
2015,07,18,00,43,16.10
2015,07,18,00,44,16.10
2015,07,18,00,45,16.10
2015,07,18,00,46,16.10
2015,07,18,00,47,16.10
2015,07,18,00,48,16.10
2015,07,18,00,49,16.10
2015,07,18,00,50,16.10
2015,07,18,00,51,16.10
2015,07,18,00,52,16.00
2015,07,18,00,53,16.00
2015,07,18,00,54,16.00
2015,07,18,00,55,16.00
2015,07,18,00,56,16.00
2015,07,18,00,57,16.00
2015,07,18,00,58,16.00
2015,07,18,00,59,16.00
2015,07,18,01,00,16.00
2015,07,18,01,01,16.00
2015,07,18,01,02,16.00
2015,07,18,01,03,16.00
2015,07,18,01,04,16.00
2015,07,18,01,05,16.00
2015,07,18,01,06,16.00
2015,07,18,01,07,16.00
2015,07,18,01,08,16.00
2015,07,18,01,09,16.00
2015,07,18,01,10,16.00
2015,07,18,01,11,15.90
2015,07,18,01,12,15.90
2015,07,18,01,13,15.90
2015,07,18,01,14,15.90
2015,07,18,01,15,15.90
2015,07,18,01,16,15.90
2015,07,18,01,17,15.90
2015,07,18,01,18,15.90
2015,07,18,01,19,15.90
2015,07,18,01,20,15.90
2015,07,18,01,21,15.90
2015,07,18,01,22,15.90
2015,07,18,01,23,15.80
2015,07,18,01,24,15.80
2015,07,18,01,25,15.80
2015,07,18,01,26,15.80
2015,07,18,01,27,15.80
2015,07,18,01,28,15.80
2015,07,18,01,29,15.80
2015,07,18,01,30,15.80
2015,07,18,01,31,15.80
2015,07,18,01,32,15.80
2015,07,18,01,33,15.80
2015,07,18,01,34,15.80
2015,07,18,01,35,15.80
2015,07,18,01,36,15.80
2015,07,18,01,37,15.80
2015,07,18,01,38,15.80
2015,07,18,01,39,15.80
2015,07,18,01,40,15.80
2015,07,18,01,41,15.80
2015,07,18,01,42,15.80
2015,07,18,01,43,15.80
2015,07,18,01,44,15.80
2015,07,18,01,45,15.80
2015,07,18,01,46,15.80
2015,07,18,01,47,15.80
2015,07,18,01,48,15.80
2015,07,18,01,49,15.80
2015,07,18,01,50,15.80
2015,07,18,01,51,15.80
2015,07,18,01,52,15.70
2015,07,18,01,53,15.70
2015,07,18,01,54,15.70
2015,07,18,01,55,15.70
2015,07,18,01,56,15.70
2015,07,18,01,57,15.70
2015,07,18,01,58,15.70
2015,07,18,01,59,15.70
2015,07,18,02,00,15.70
2015,07,18,02,01,15.70
2015,07,18,02,02,15.70
2015,07,18,02,03,15.80
2015,07,18,02,04,15.80
2015,07,18,02,05,15.80
2015,07,18,02,06,15.80
2015,07,18,02,07,15.80
2015,07,18,02,08,15.80
2015,07,18,02,09,15.80
2015,07,18,02,10,15.80
2015,07,18,02,11,15.90
2015,07,18,02,12,15.90
2015,07,18,02,13,15.90
2015,07,18,02,14,15.90
2015,07,18,02,15,15.90
2015,07,18,02,16,15.90
2015,07,18,02,17,15.90
2015,07,18,02,18,15.90
2015,07,18,02,19,15.90
2015,07,18,02,20,15.90
2015,07,18,02,21,16.10
2015,07,18,02,22,16.10
2015,07,18,02,23,16.10
2015,07,18,02,24,16.10
2015,07,18,02,25,16.10
2015,07,18,02,26,16.10
2015,07,18,02,27,16.10
2015,07,18,02,28,16.10
2015,07,18,02,29,16.10
2015,07,18,02,30,16.10
2015,07,18,02,31,16.10
2015,07,18,02,32,16.10
2015,07,18,02,33,16.10
2015,07,18,02,34,16.10
2015,07,18,02,35,16.10
2015,07,18,02,36,16.10
2015,07,18,02,37,16.10
2015,07,18,02,38,16.10
2015,07,18,02,39,16.10
2015,07,18,02,40,16.10
2015,07,18,02,41,16.10
2015,07,18,02,42,16.10
2015,07,18,02,43,16.10
2015,07,18,02,44,16.10
2015,07,18,02,45,16.10
2015,07,18,02,46,16.10
2015,07,18,02,47,16.10
2015,07,18,02,48,16.10
2015,07,18,02,49,16.10
2015,07,18,02,50,16.10
2015,07,18,02,51,16.10
2015,07,18,02,52,16.10
2015,07,18,02,53,16.10
2015,07,18,02,54,16.10
2015,07,18,02,55,16.10
2015,07,18,02,56,16.10
2015,07,18,02,57,16.10
2015,07,18,02,58,16.10
2015,07,18,02,59,16.10
2015,07,18,03,00,16.10
2015,07,18,03,01,16.10
2015,07,18,03,02,16.10
2015,07,18,03,03,16.00
2015,07,18,03,04,16.00
2015,07,18,03,05,16.00
2015,07,18,03,06,16.00
2015,07,18,03,07,16.00
2015,07,18,03,08,16.00
2015,07,18,03,09,16.00
2015,07,18,03,10,16.00
2015,07,18,03,11,16.00
2015,07,18,03,12,16.00
2015,07,18,03,13,16.00
2015,07,18,03,14,16.00
2015,07,18,03,15,16.00
2015,07,18,03,16,16.00
2015,07,18,03,17,16.00
2015,07,18,03,18,16.00
2015,07,18,03,19,16.00
2015,07,18,03,20,16.00
2015,07,18,03,21,15.90
2015,07,18,03,22,15.90
2015,07,18,03,23,15.90
2015,07,18,03,24,15.90
2015,07,18,03,25,15.90
2015,07,18,03,26,15.90
2015,07,18,03,27,15.90
2015,07,18,03,28,15.90
2015,07,18,03,29,15.90
2015,07,18,03,30,15.90
2015,07,18,03,31,16.00
2015,07,18,03,32,16.00
2015,07,18,03,33,16.00
2015,07,18,03,34,16.00
2015,07,18,03,35,16.00
2015,07,18,03,36,16.00
2015,07,18,03,37,16.00
2015,07,18,03,38,16.00
2015,07,18,03,39,16.00
2015,07,18,03,40,16.00
2015,07,18,03,41,16.00
2015,07,18,03,42,16.00
2015,07,18,03,43,16.00
2015,07,18,03,44,16.00
2015,07,18,03,45,16.00
2015,07,18,03,46,16.00
2015,07,18,03,47,16.00
2015,07,18,03,48,16.00
2015,07,18,03,49,16.00
2015,07,18,03,50,16.00
2015,07,18,03,51,16.00
2015,07,18,03,52,16.00
2015,07,18,03,53,16.00
2015,07,18,03,54,16.00
2015,07,18,03,55,16.00
2015,07,18,03,56,16.00
2015,07,18,03,57,16.00
2015,07,18,03,58,16.00
2015,07,18,03,59,16.00
2015,07,18,04,00,16.00
2015,07,18,04,01,16.00
2015,07,18,04,02,16.10
2015,07,18,04,03,16.10
2015,07,18,04,04,16.10
2015,07,18,04,05,16.10
2015,07,18,04,06,16.10
2015,07,18,04,07,16.10
2015,07,18,04,08,16.10
2015,07,18,04,09,16.10
2015,07,18,04,10,16.10
2015,07,18,04,11,16.10
2015,07,18,04,12,16.10
2015,07,18,04,13,16.10
2015,07,18,04,14,16.10
2015,07,18,04,15,16.10
2015,07,18,04,16,16.10
2015,07,18,04,17,16.10
2015,07,18,04,18,16.10
2015,07,18,04,19,16.10
2015,07,18,04,20,16.10
2015,07,18,04,21,16.10
2015,07,18,04,22,16.10
2015,07,18,04,23,15.90
2015,07,18,04,24,15.90
2015,07,18,04,25,15.90
2015,07,18,04,26,15.90
2015,07,18,04,27,15.90
2015,07,18,04,28,15.90
2015,07,18,04,29,15.90
2015,07,18,04,30,15.90
2015,07,18,04,31,15.90
2015,07,18,04,32,15.90
2015,07,18,04,33,15.90
2015,07,18,04,34,15.90
2015,07,18,04,35,15.90
2015,07,18,04,36,15.90
2015,07,18,04,37,15.90
2015,07,18,04,38,15.90
2015,07,18,04,39,15.90
2015,07,18,04,40,15.90
2015,07,18,04,41,15.80
2015,07,18,04,42,15.80
2015,07,18,04,43,15.80
2015,07,18,04,44,15.80
2015,07,18,04,45,15.80
2015,07,18,04,46,15.80
2015,07,18,04,47,15.80
2015,07,18,04,48,15.80
2015,07,18,04,49,15.80
2015,07,18,04,50,15.80
2015,07,18,04,51,15.80
2015,07,18,04,52,15.80
2015,07,18,04,53,15.80
2015,07,18,04,54,15.80
2015,07,18,04,55,15.80
2015,07,18,04,56,15.80
2015,07,18,04,57,15.80
2015,07,18,04,58,15.80
2015,07,18,04,59,15.80
2015,07,18,05,00,15.80
2015,07,18,05,01,15.80
2015,07,18,05,02,15.80
2015,07,18,05,03,15.80
2015,07,18,05,04,15.80
2015,07,18,05,05,15.80
2015,07,18,05,06,15.80
2015,07,18,05,07,15.80
2015,07,18,05,08,15.80
2015,07,18,05,09,15.80
2015,07,18,05,10,15.80
2015,07,18,05,11,15.80
2015,07,18,05,12,15.80
2015,07,18,05,13,15.80
2015,07,18,05,14,15.80
2015,07,18,05,15,15.80
2015,07,18,05,16,15.80
2015,07,18,05,17,15.80
2015,07,18,05,18,15.80
2015,07,18,05,19,15.80
2015,07,18,05,20,15.80
2015,07,18,05,21,15.80
2015,07,18,05,22,15.80
2015,07,18,05,23,15.70
2015,07,18,05,24,15.70
2015,07,18,05,25,15.70
2015,07,18,05,26,15.70
2015,07,18,05,27,15.70
2015,07,18,05,28,15.70
2015,07,18,05,29,15.70
2015,07,18,05,30,15.70
2015,07,18,05,31,15.70
2015,07,18,05,32,15.80
2015,07,18,05,33,15.80
2015,07,18,05,34,15.80
2015,07,18,05,35,15.80
2015,07,18,05,36,15.80
2015,07,18,05,37,15.80
2015,07,18,05,38,15.80
2015,07,18,05,39,15.80
2015,07,18,05,40,15.80
2015,07,18,05,41,15.80
2015,07,18,05,42,15.80
2015,07,18,05,43,15.80
2015,07,18,05,44,15.80
2015,07,18,05,45,15.80
2015,07,18,05,46,15.80
2015,07,18,05,47,15.80
2015,07,18,05,48,15.80
2015,07,18,05,49,15.80
2015,07,18,05,50,15.80
2015,07,18,05,51,15.80
2015,07,18,05,52,15.80
2015,07,18,05,53,15.70
2015,07,18,05,54,15.70
2015,07,18,05,55,15.70
2015,07,18,05,56,15.70
2015,07,18,05,57,15.70
2015,07,18,05,58,15.70
2015,07,18,05,59,15.70
2015,07,18,06,00,15.70
2015,07,18,06,01,15.80
2015,07,18,06,02,15.80
2015,07,18,06,03,15.80
2015,07,18,06,04,15.80
2015,07,18,06,05,15.80
2015,07,18,06,06,15.80
2015,07,18,06,07,15.80
2015,07,18,06,08,15.80
2015,07,18,06,09,15.80
2015,07,18,06,10,15.80
2015,07,18,06,11,16.00
2015,07,18,06,12,16.00
2015,07,18,06,13,16.00
2015,07,18,06,14,16.00
2015,07,18,06,15,16.00
2015,07,18,06,16,16.00
2015,07,18,06,17,16.00
2015,07,18,06,18,16.00
2015,07,18,06,19,16.00
2015,07,18,06,20,16.00
2015,07,18,06,21,16.00
2015,07,18,06,22,16.00
2015,07,18,06,23,16.10
2015,07,18,06,24,16.10
2015,07,18,06,25,16.10
2015,07,18,06,26,16.10
2015,07,18,06,27,16.10
2015,07,18,06,28,16.10
2015,07,18,06,29,16.10
2015,07,18,06,30,16.10
2015,07,18,06,31,16.10
2015,07,18,06,32,16.10
2015,07,18,06,33,16.10
2015,07,18,06,34,16.10
2015,07,18,06,35,16.10
2015,07,18,06,36,16.10
2015,07,18,06,37,16.10
2015,07,18,06,38,16.10
2015,07,18,06,39,16.10
2015,07,18,06,40,16.10
2015,07,18,06,41,16.10
2015,07,18,06,42,16.10
2015,07,18,06,43,16.00
2015,07,18,06,44,16.00
2015,07,18,06,45,16.00
2015,07,18,06,46,16.00
2015,07,18,06,47,16.00
2015,07,18,06,48,16.00
2015,07,18,06,49,16.00
2015,07,18,06,50,16.00
2015,07,18,06,51,16.00
2015,07,18,06,52,16.00
2015,07,18,06,53,16.20
2015,07,18,06,54,16.20
2015,07,18,06,55,16.20
2015,07,18,06,56,16.20
2015,07,18,06,57,16.20
2015,07,18,06,58,16.20
2015,07,18,06,59,16.20
2015,07,18,07,00,16.20
2015,07,18,07,01,16.20
2015,07,18,07,02,16.40
2015,07,18,07,03,16.40
2015,07,18,07,04,16.40
2015,07,18,07,05,16.40
2015,07,18,07,06,16.40
2015,07,18,07,07,16.40
2015,07,18,07,08,16.40
2015,07,18,07,09,16.40
2015,07,18,07,10,16.40
2015,07,18,07,11,16.40
2015,07,18,07,12,16.40
2015,07,18,07,13,16.40
2015,07,18,07,14,16.40
2015,07,18,07,15,16.40
2015,07,18,07,16,16.40
2015,07,18,07,17,16.40
2015,07,18,07,18,16.40
2015,07,18,07,19,16.40
2015,07,18,07,20,16.40
2015,07,18,07,21,16.40
2015,07,18,07,22,16.40
2015,07,18,07,23,16.40
2015,07,18,07,24,16.40
2015,07,18,07,25,16.40
2015,07,18,07,26,16.40
2015,07,18,07,27,16.40
2015,07,18,07,28,16.40
2015,07,18,07,29,16.40
2015,07,18,07,30,16.40
2015,07,18,07,31,16.40
2015,07,18,07,32,16.40
2015,07,18,07,33,16.30
2015,07,18,07,34,16.30
2015,07,18,07,35,16.30
2015,07,18,07,36,16.30
2015,07,18,07,37,16.30
2015,07,18,07,38,16.30
2015,07,18,07,39,16.30
2015,07,18,07,40,16.30
2015,07,18,07,41,16.30
2015,07,18,07,42,17.10
2015,07,18,07,43,17.10
2015,07,18,07,44,17.10
2015,07,18,07,45,17.10
2015,07,18,07,46,17.10
2015,07,18,07,47,17.10
2015,07,18,07,48,17.10
2015,07,18,07,49,17.10
2015,07,18,07,50,17.10
2015,07,18,07,51,18.10
2015,07,18,07,52,18.10
2015,07,18,07,53,18.10
2015,07,18,07,54,18.10
2015,07,18,07,55,18.10
2015,07,18,07,56,18.10
2015,07,18,07,57,18.10
2015,07,18,07,58,18.10
2015,07,18,07,59,18.10
2015,07,18,08,00,18.10
2015,07,18,08,01,18.10
2015,07,18,08,02,19.30
2015,07,18,08,03,19.30
2015,07,18,08,04,19.30
2015,07,18,08,05,19.30
2015,07,18,08,06,19.30
2015,07,18,08,07,19.30
2015,07,18,08,08,19.30
2015,07,18,08,09,19.30
2015,07,18,08,10,19.30
2015,07,18,08,11,19.30
2015,07,18,08,42,20.20
2015,07,18,08,43,20.20
2015,07,18,08,44,20.20
2015,07,18,08,45,20.20
2015,07,18,08,46,20.20
2015,07,18,08,47,20.20
2015,07,18,08,48,20.20
2015,07,18,08,49,20.20
2015,07,18,08,50,20.20
2015,07,18,08,51,19.90
2015,07,18,08,52,19.90
2015,07,18,08,53,19.90
2015,07,18,08,54,19.90
2015,07,18,08,55,19.90
2015,07,18,08,56,19.90
2015,07,18,08,57,19.90
2015,07,18,08,58,19.90
2015,07,18,08,59,19.90
2015,07,18,09,00,19.90
2015,07,18,09,01,19.90
2015,07,18,09,02,19.90
2015,07,18,09,03,19.70
2015,07,18,09,04,19.70
2015,07,18,09,05,19.70
2015,07,18,09,06,19.70
2015,07,18,09,07,19.70
2015,07,18,09,08,19.70
2015,07,18,09,09,19.70
2015,07,18,09,10,19.70
2015,07,18,09,11,19.70
2015,07,18,09,12,19.90
2015,07,18,09,13,19.90
2015,07,18,09,14,19.90
2015,07,18,09,15,19.90
2015,07,18,09,16,19.90
2015,07,18,09,17,19.90
2015,07,18,09,18,19.90
2015,07,18,09,19,19.90
2015,07,18,09,20,19.90
2015,07,18,09,21,19.90
2015,07,18,09,22,20.20
2015,07,18,09,23,20.20
2015,07,18,09,24,20.20
2015,07,18,09,25,20.20
2015,07,18,09,26,20.20
2015,07,18,09,27,20.20
2015,07,18,09,28,20.20
2015,07,18,09,29,20.20
2015,07,18,09,30,20.20
2015,07,18,09,31,20.30
2015,07,18,09,32,20.30
2015,07,18,09,33,20.30
2015,07,18,09,34,20.30
2015,07,18,09,35,20.30
2015,07,18,09,36,20.30
2015,07,18,09,37,20.30
2015,07,18,09,38,20.30
2015,07,18,09,39,20.30
2015,07,18,09,40,20.30
2015,07,18,09,41,20.60
2015,07,18,09,42,20.60
2015,07,18,09,43,20.60
2015,07,18,09,44,20.60
2015,07,18,09,45,20.60
2015,07,18,09,46,20.60
2015,07,18,09,47,20.60
2015,07,18,09,48,20.60
2015,07,18,09,49,20.60
2015,07,18,09,50,20.60
2015,07,18,09,51,20.60
2015,07,18,09,52,20.60
2015,07,18,09,53,20.60
2015,07,18,09,54,20.60
2015,07,18,09,55,20.60
2015,07,18,09,56,20.60
2015,07,18,09,57,20.60
2015,07,18,09,58,20.60
2015,07,18,09,59,20.60
2015,07,18,10,00,20.60
2015,07,18,10,01,20.60
2015,07,18,10,02,20.80
2015,07,18,10,03,20.80
2015,07,18,10,04,20.80
2015,07,18,10,05,20.80
2015,07,18,10,06,20.80
2015,07,18,10,07,20.80
2015,07,18,10,08,20.80
2015,07,18,10,09,20.80
2015,07,18,10,10,20.80
2015,07,18,10,11,20.80
2015,07,18,10,12,20.80
2015,07,18,10,13,20.80
2015,07,18,10,14,20.80
2015,07,18,10,15,20.80
2015,07,18,10,16,20.80
2015,07,18,10,17,20.80
2015,07,18,10,18,20.80
2015,07,18,10,19,20.80
2015,07,18,10,20,20.80
2015,07,18,10,21,20.80
2015,07,18,10,22,20.80
2015,07,18,10,23,20.80
2015,07,18,10,24,20.80
2015,07,18,10,25,20.80
2015,07,18,10,26,20.80
2015,07,18,10,27,20.80
2015,07,18,10,28,20.80
2015,07,18,10,29,20.80
2015,07,18,10,30,20.80
2015,07,18,10,31,20.80
2015,07,18,10,32,20.80
2015,07,18,10,33,20.80
2015,07,18,10,34,20.80
2015,07,18,10,35,20.80
2015,07,18,10,36,20.80
2015,07,18,10,37,20.80
2015,07,18,10,38,20.80
2015,07,18,10,39,20.80
2015,07,18,10,40,20.80
2015,07,18,10,41,20.80
2015,07,18,10,42,20.70
2015,07,18,10,43,20.70
2015,07,18,10,44,20.70
2015,07,18,10,45,20.70
2015,07,18,10,46,20.70
2015,07,18,10,47,20.70
2015,07,18,10,48,20.70
2015,07,18,10,49,20.70
2015,07,18,10,50,20.70
2015,07,18,10,51,20.30
2015,07,18,10,52,20.30
2015,07,18,10,53,20.30
2015,07,18,10,54,20.30
2015,07,18,10,55,20.30
2015,07,18,10,56,20.30
2015,07,18,10,57,20.30
2015,07,18,10,58,20.30
2015,07,18,10,59,20.30
2015,07,18,11,00,20.30
2015,07,18,11,01,20.40
2015,07,18,11,02,20.40
2015,07,18,11,03,20.40
2015,07,18,11,04,20.40
2015,07,18,11,05,20.40
2015,07,18,11,06,20.40
2015,07,18,11,07,20.40
2015,07,18,11,08,20.40
2015,07,18,11,09,20.40
2015,07,18,11,10,20.40
2015,07,18,11,11,20.40
2015,07,18,11,12,20.70
2015,07,18,11,13,20.70
2015,07,18,11,14,20.70
2015,07,18,11,15,20.70
2015,07,18,11,16,20.70
2015,07,18,11,17,20.70
2015,07,18,11,18,20.70
2015,07,18,11,19,20.70
2015,07,18,11,20,20.70
2015,07,18,11,21,20.90
2015,07,18,11,22,20.90
2015,07,18,11,23,20.90
2015,07,18,11,24,20.90
2015,07,18,11,25,20.90
2015,07,18,11,26,20.90
2015,07,18,11,27,20.90
2015,07,18,11,28,20.90
2015,07,18,11,29,20.90
2015,07,18,11,30,20.90
2015,07,18,11,31,20.90
2015,07,18,11,32,21.50
2015,07,18,11,33,21.50
2015,07,18,11,34,21.50
2015,07,18,11,35,21.50
2015,07,18,11,36,21.50
2015,07,18,11,37,21.50
2015,07,18,11,38,21.50
2015,07,18,11,39,21.50
2015,07,18,11,40,21.50
2015,07,18,11,41,21.80
2015,07,18,11,42,21.80
2015,07,18,11,43,21.80
2015,07,18,11,44,21.80
2015,07,18,11,45,21.80
2015,07,18,11,46,21.80
2015,07,18,11,47,21.80
2015,07,18,11,48,21.80
2015,07,18,11,49,21.80
2015,07,18,11,50,21.80
2015,07,18,11,51,22.60
2015,07,18,11,52,22.60
2015,07,18,11,53,22.60
2015,07,18,11,54,22.60
2015,07,18,11,55,22.60
2015,07,18,11,56,22.60
2015,07,18,11,57,22.60
2015,07,18,11,58,22.60
2015,07,18,11,59,22.60
2015,07,18,12,00,22.60
2015,07,18,12,01,22.60
2015,07,18,12,02,23.00
2015,07,18,12,03,23.00
2015,07,18,12,04,23.00
2015,07,18,12,05,23.00
2015,07,18,12,06,23.00
2015,07,18,12,07,23.00
2015,07,18,12,08,23.00
2015,07,18,12,09,23.00
2015,07,18,12,10,23.00
2015,07,18,12,11,23.70
2015,07,18,12,12,23.70
2015,07,18,12,13,23.70
2015,07,18,12,14,23.70
2015,07,18,12,15,23.70
2015,07,18,12,16,23.70
2015,07,18,12,17,23.70
2015,07,18,12,18,23.70
2015,07,18,12,19,23.70
2015,07,18,12,20,23.70
2015,07,18,12,21,23.70
2015,07,18,12,22,23.70
2015,07,18,12,23,23.80
2015,07,18,12,24,23.80
2015,07,18,12,25,23.80
2015,07,18,12,26,23.80
2015,07,18,12,27,23.80
2015,07,18,12,28,23.80
2015,07,18,12,29,23.80
2015,07,18,12,30,23.80
2015,07,18,12,31,23.80
2015,07,18,12,32,24.30
2015,07,18,12,33,24.30
2015,07,18,12,34,24.30
2015,07,18,12,35,24.30
2015,07,18,12,36,24.30
2015,07,18,12,37,24.30
2015,07,18,12,38,24.30
2015,07,18,12,39,24.30
2015,07,18,12,40,24.30
2015,07,18,12,41,24.30
2015,07,18,12,42,23.80
2015,07,18,12,43,23.80
2015,07,18,12,44,23.80
2015,07,18,12,45,23.80
2015,07,18,12,46,23.80
2015,07,18,12,47,23.80
2015,07,18,12,48,23.80
2015,07,18,12,49,23.80
2015,07,18,12,50,23.80
2015,07,18,12,51,23.80
2015,07,18,12,52,24.50
2015,07,18,12,53,24.50
2015,07,18,12,54,24.50
2015,07,18,12,55,24.50
2015,07,18,12,56,24.50
2015,07,18,12,57,24.50
2015,07,18,12,58,24.50
2015,07,18,12,59,24.50
2015,07,18,13,00,24.50
2015,07,18,13,01,24.50
2015,07,18,13,02,24.00
2015,07,18,13,03,24.00
2015,07,18,13,04,24.00
2015,07,18,13,05,24.00
2015,07,18,13,06,24.00
2015,07,18,13,07,24.00
2015,07,18,13,08,24.00
2015,07,18,13,09,24.00
2015,07,18,13,10,24.00
2015,07,18,13,11,24.00
2015,07,18,13,12,24.70
2015,07,18,13,13,24.70
2015,07,18,13,14,24.70
2015,07,18,13,15,24.70
2015,07,18,13,16,24.70
2015,07,18,13,17,24.70
2015,07,18,13,18,24.70
2015,07,18,13,19,24.70
2015,07,18,13,20,24.70
2015,07,18,13,21,24.70
2015,07,18,13,22,24.40
2015,07,18,13,23,24.40
2015,07,18,13,24,24.40
2015,07,18,13,25,24.40
2015,07,18,13,26,24.40
2015,07,18,13,27,24.40
2015,07,18,13,28,24.40
2015,07,18,13,29,24.40
2015,07,18,13,30,24.40
2015,07,18,13,31,24.40
2015,07,18,13,32,24.40
2015,07,18,13,33,24.40
2015,07,18,13,34,24.20
2015,07,18,13,35,24.20
2015,07,18,13,36,24.20
2015,07,18,13,37,24.20
2015,07,18,13,38,24.20
2015,07,18,13,39,24.20
2015,07,18,13,40,24.20
2015,07,18,13,41,24.20
2015,07,18,13,42,24.40
2015,07,18,13,43,24.40
2015,07,18,13,44,24.40
2015,07,18,13,45,24.40
2015,07,18,13,46,24.40
2015,07,18,13,47,24.40
2015,07,18,13,48,24.40
2015,07,18,13,49,24.40
2015,07,18,13,50,24.40
2015,07,18,13,51,25.00
2015,07,18,13,52,25.00
2015,07,18,13,53,25.00
2015,07,18,13,54,25.00
2015,07,18,13,55,25.00
2015,07,18,13,56,25.00
2015,07,18,13,57,25.00
2015,07,18,13,58,25.00
2015,07,18,13,59,25.00
2015,07,18,14,00,25.00
2015,07,18,14,01,25.00
2015,07,18,14,02,24.60
2015,07,18,14,03,24.60
2015,07,18,14,04,24.60
2015,07,18,14,05,24.60
2015,07,18,14,06,24.60
2015,07,18,14,07,24.60
2015,07,18,14,08,24.60
2015,07,18,14,09,24.60
2015,07,18,14,10,24.60
2015,07,18,14,11,24.80
2015,07,18,14,12,24.80
2015,07,18,14,13,24.80
2015,07,18,14,14,24.80
2015,07,18,14,15,24.80
2015,07,18,14,16,24.80
2015,07,18,14,17,24.80
2015,07,18,14,18,24.80
2015,07,18,14,19,24.80
2015,07,18,14,20,24.80
2015,07,18,14,21,24.80
2015,07,18,14,22,24.60
2015,07,18,14,23,24.60
2015,07,18,14,24,24.60
2015,07,18,14,25,24.60
2015,07,18,14,26,24.60
2015,07,18,14,27,24.60
2015,07,18,14,28,24.60
2015,07,18,14,29,24.60
2015,07,18,14,30,24.60
2015,07,18,14,41,24.80
2015,07,18,14,42,24.80
2015,07,18,14,43,24.80
2015,07,18,14,44,24.80
2015,07,18,14,45,24.80
2015,07,18,14,46,24.80
2015,07,18,14,47,24.80
2015,07,18,14,48,24.80
2015,07,18,14,49,24.80
2015,07,18,14,50,24.80
2015,07,18,14,51,24.80
2015,07,18,14,52,24.80
2015,07,18,14,53,24.90
2015,07,18,14,54,24.90
2015,07,18,14,55,24.90
2015,07,18,14,56,24.90
2015,07,18,14,57,24.90
2015,07,18,14,58,24.90
2015,07,18,14,59,24.90
2015,07,18,15,00,24.90
2015,07,18,15,01,24.90
2015,07,18,15,02,25.10
2015,07,18,15,03,25.10
2015,07,18,15,04,25.10
2015,07,18,15,05,25.10
2015,07,18,15,06,25.10
2015,07,18,15,07,25.10
2015,07,18,15,08,25.10
2015,07,18,15,09,25.10
2015,07,18,15,10,25.10
2015,07,18,15,11,25.10
2015,07,18,15,12,24.90
2015,07,18,15,13,24.90
2015,07,18,15,14,24.90
2015,07,18,15,15,24.90
2015,07,18,15,16,24.90
2015,07,18,15,17,24.90
2015,07,18,15,18,24.90
2015,07,18,15,19,24.90
2015,07,18,15,20,24.90
2015,07,18,15,21,25.30
2015,07,18,15,22,25.30
2015,07,18,15,23,25.30
2015,07,18,15,24,25.30
2015,07,18,15,25,25.30
2015,07,18,15,26,25.30
2015,07,18,15,27,25.30
2015,07,18,15,28,25.30
2015,07,18,15,29,25.30
2015,07,18,15,30,25.30
2015,07,18,15,31,25.40
2015,07,18,15,32,25.30
2015,07,18,15,33,25.40
2015,07,18,15,34,25.40
2015,07,18,15,35,25.40
2015,07,18,15,36,25.40
2015,07,18,15,37,25.40
2015,07,18,15,38,25.40
2015,07,18,15,39,25.40
2015,07,18,15,40,25.40
2015,07,18,15,41,25.40
2015,07,18,15,42,25.40
2015,07,18,15,43,25.40
2015,07,18,15,44,25.40
2015,07,18,15,45,25.40
2015,07,18,15,46,25.40
2015,07,18,15,47,25.40
2015,07,18,15,48,25.40
2015,07,18,15,49,25.40
2015,07,18,15,50,25.40
2015,07,18,15,51,25.40
2015,07,18,15,52,25.40
2015,07,18,15,53,25.40
2015,07,18,15,54,25.40
2015,07,18,15,55,25.40
2015,07,18,15,56,25.40
2015,07,18,15,57,25.40
2015,07,18,15,58,25.40
2015,07,18,15,59,25.40
2015,07,18,16,00,25.40
2015,07,18,16,01,25.40
2015,07,18,16,02,25.40
2015,07,18,16,03,25.40
2015,07,18,16,04,25.40
2015,07,18,16,05,25.40
2015,07,18,16,06,25.40
2015,07,18,16,07,25.40
2015,07,18,16,08,25.40
2015,07,18,16,09,25.40
2015,07,18,16,10,25.40
2015,07,18,16,11,25.40
2015,07,18,16,12,25.20
2015,07,18,16,13,25.20
2015,07,18,16,14,25.20
2015,07,18,16,15,25.20
2015,07,18,16,16,25.20
2015,07,18,16,17,25.20
2015,07,18,16,18,25.20
2015,07,18,16,19,25.20
2015,07,18,16,20,25.20
2015,07,18,16,21,25.20
2015,07,18,16,22,25.20
2015,07,18,16,23,25.20
2015,07,18,16,24,25.20
2015,07,18,16,25,25.20
2015,07,18,16,26,25.20
2015,07,18,16,27,25.20
2015,07,18,16,28,25.20
2015,07,18,16,29,25.20
2015,07,18,16,30,25.20
2015,07,18,16,31,25.20
2015,07,18,16,32,25.20
2015,07,18,16,33,25.20
2015,07,18,16,34,25.20
2015,07,18,16,35,25.20
2015,07,18,16,36,25.20
2015,07,18,16,37,25.20
2015,07,18,16,38,25.20
2015,07,18,16,39,25.20
2015,07,18,16,40,25.20
2015,07,18,16,41,25.20
2015,07,18,16,42,25.40
2015,07,18,16,43,25.40
2015,07,18,16,44,25.40
2015,07,18,16,45,25.40
2015,07,18,16,46,25.40
2015,07,18,16,47,25.40
2015,07,18,16,48,25.40
2015,07,18,16,49,25.40
2015,07,18,16,50,25.40
2015,07,18,16,51,25.40
2015,07,18,16,52,25.40
2015,07,18,16,53,25.40
2015,07,18,16,54,25.40
2015,07,18,16,55,25.40
2015,07,18,16,56,25.40
2015,07,18,16,57,25.40
2015,07,18,16,58,25.40
2015,07,18,16,59,25.40
2015,07,18,17,00,25.40
2015,07,18,17,01,25.40
2015,07,18,17,02,25.60
2015,07,18,17,03,25.60
2015,07,18,17,04,25.60
2015,07,18,17,05,25.60
2015,07,18,17,06,25.60
2015,07,18,17,07,25.60
2015,07,18,17,08,25.60
2015,07,18,17,09,25.60
2015,07,18,17,10,25.60
2015,07,18,17,11,25.40
2015,07,18,17,12,25.40
2015,07,18,17,13,25.40
2015,07,18,17,14,25.40
2015,07,18,17,15,25.40
2015,07,18,17,16,25.40
2015,07,18,17,17,25.40
2015,07,18,17,18,25.40
2015,07,18,17,19,25.40
2015,07,18,17,20,25.40
2015,07,18,17,21,25.40
2015,07,18,17,22,25.40
2015,07,18,17,23,25.40
2015,07,18,17,24,25.40
2015,07,18,17,25,25.40
2015,07,18,17,26,25.40
2015,07,18,17,27,25.40
2015,07,18,17,28,25.40
2015,07,18,17,29,25.40
2015,07,18,17,30,25.40
2015,07,18,17,31,25.40
2015,07,18,17,32,25.40
2015,07,18,17,33,25.40
2015,07,18,17,34,25.40
2015,07,18,17,35,25.40
2015,07,18,17,36,25.40
2015,07,18,17,37,25.40
2015,07,18,17,38,25.40
2015,07,18,17,39,25.40
2015,07,18,17,40,25.40
2015,07,18,17,41,25.10
2015,07,18,17,42,25.10
2015,07,18,17,43,25.10
2015,07,18,17,44,25.10
2015,07,18,17,45,25.10
2015,07,18,17,46,25.10
2015,07,18,17,47,25.10
2015,07,18,17,48,25.10
2015,07,18,17,49,25.10
2015,07,18,17,50,25.10
2015,07,18,17,51,25.10
2015,07,18,17,52,25.10
2015,07,18,17,53,25.10
2015,07,18,17,54,25.10
2015,07,18,17,55,25.10
2015,07,18,17,56,25.10
2015,07,18,17,57,25.10
2015,07,18,17,58,25.10
2015,07,18,17,59,25.10